When you browse on this site, cookies collect data to enhance your experience and personalize the content and advertising you see.
Visit our Privacy Policy to learn more. By continuing to use the site, you agree to this use of cookies and data.
  • In Hungary
  • List of Countries
  • For 7 days
  • Water Temperature
  • Weather Map
  • News
  • Weather Widgets
  • user-avatar
    Login

    Hourly Weather Luchesa

    Today, 6 December, Friday

    Time Temperature Precipitation Wind Pressure Humidity
    00:00 -2°C° 0 mm 5 mps 745 mmHg 86%
    01:00 -4°C° 0 mm 5 mps 745 mmHg 85%
    02:00 -4°C° 0 mm 5 mps 745 mmHg 84%
    03:00 -4°C° 0 mm 5 mps 744 mmHg 83%
    04:00 -4°C° 0 mm 5 mps 744 mmHg 82%
    05:00 -4°C° 0 mm 5 mps 743 mmHg 81%
    06:00 -4°C° 0 mm 5 mps 743 mmHg 81%
    07:00 -4°C° 0 mm 5 mps 743 mmHg 81%
    08:00 -4°C° 0 mm 5 mps 743 mmHg 81%
    09:00 -4°C° 0 mm 5 mps 743 mmHg 79%
    10:00 -3°C° 0 mm 6 mps 742 mmHg 77%
    11:00 -3°C° 0 mm 6 mps 742 mmHg 75%
    12:00 -3°C° 0 mm 6 mps 741 mmHg 74%
    13:00 -2°C° 0 mm 6 mps 741 mmHg 73%
    14:00 -2°C° 0 mm 6 mps 741 mmHg 72%
    15:00 -2°C° 0 mm 6 mps 741 mmHg 71%
    16:00 -2°C° 0 mm 6 mps 740 mmHg 71%
    17:00 -3°C° 0 mm 6 mps 740 mmHg 70%
    18:00 -2°C° 0 mm 6 mps 740 mmHg 71%
    19:00 -2°C° 0 mm 6 mps 741 mmHg 71%
    20:00 -1°C° 0 mm 5 mps 741 mmHg 71%
    21:00 -1°C° 0 mm 5 mps 741 mmHg 73%
    22:00 -1°C° 0 mm 5 mps 741 mmHg 74%
    23:00 -1°C° 0 mm 5 mps 740 mmHg 75%

    Tomorrow, 7 December, Saturday

    Time Temperature Precipitation Wind Pressure Humidity
    00:00 -1°C° 0.1 mm 5 mps 741 mmHg 76%
    01:00 -1°C° 0.1 mm 5 mps 741 mmHg 77%
    02:00 -1°C° 0.1 mm 5 mps 741 mmHg 77%
    03:00 -2°C° 0.2 mm 5 mps 740 mmHg 80%
    04:00 -2°C° 0.2 mm 4 mps 740 mmHg 82%
    05:00 -2°C° 0.2 mm 4 mps 740 mmHg 84%
    06:00 -2°C° 0.1 mm 4 mps 740 mmHg 84%
    07:00 -2°C° 0.1 mm 4 mps 740 mmHg 84%
    08:00 -2°C° 0.1 mm 4 mps 740 mmHg 83%
    09:00 -2°C° 0 mm 5 mps 739 mmHg 81%
    10:00 -2°C° 0 mm 5 mps 739 mmHg 79%
    11:00 -2°C° 0 mm 5 mps 738 mmHg 77%
    12:00 -1°C° 0 mm 5 mps 738 mmHg 76%
    13:00 -1°C° 0 mm 5 mps 738 mmHg 74%
    14:00 -1°C° 0 mm 5 mps 737 mmHg 72%
    15:00 -1°C° 0 mm 5 mps 737 mmHg 73%
    16:00 -2°C° 0 mm 5 mps 737 mmHg 74%
    17:00 -2°C° 0 mm 5 mps 736 mmHg 74%
    18:00 -2°C° 0 mm 5 mps 736 mmHg 75%
    19:00 -2°C° 0 mm 5 mps 736 mmHg 76%
    20:00 -2°C° 0 mm 5 mps 736 mmHg 77%
    21:00 -2°C° 0 mm 5 mps 736 mmHg 79%
    22:00 -1°C° 0 mm 5 mps 735 mmHg 81%
    23:00 -1°C° 0 mm 5 mps 735 mmHg 83%

    Day after tomorrow, 8 December, Sunday

    Time Temperature Precipitation Wind Pressure Humidity
    00:00 -2°C° 0.1 mm 6 mps 734 mmHg 86%
    01:00 -1°C° 0.1 mm 6 mps 734 mmHg 89%
    02:00 -1°C° 0.1 mm 6 mps 734 mmHg 93%
    03:00 -1°C° 0.5 mm 6 mps 733 mmHg 94%
    04:00 -1°C° 0.5 mm 6 mps 733 mmHg 95%
    05:00 +1°C° 0.5 mm 6 mps 733 mmHg 96%
    06:00 -1°C° 0.2 mm 6 mps 733 mmHg 94%
    07:00 -1°C° 0.2 mm 6 mps 733 mmHg 91%
    08:00 -1°C° 0.2 mm 5 mps 733 mmHg 88%
    09:00 -1°C° 0 mm 6 mps 734 mmHg 86%
    10:00 -1°C° 0 mm 6 mps 734 mmHg 84%
    11:00 -1°C° 0 mm 6 mps 735 mmHg 83%
    12:00 -1°C° 0 mm 6 mps 735 mmHg 82%
    13:00 -1°C° 0 mm 6 mps 735 mmHg 82%
    14:00 -2°C° 0 mm 6 mps 736 mmHg 82%
    15:00 -1°C° 0 mm 5 mps 736 mmHg 82%
    16:00 -1°C° 0 mm 5 mps 737 mmHg 82%
    17:00 -1°C° 0 mm 5 mps 737 mmHg 82%
    18:00 -1°C° 0 mm 5 mps 737 mmHg 84%
    19:00 -1°C° 0 mm 4 mps 737 mmHg 86%
    20:00 -1°C° 0 mm 4 mps 737 mmHg 88%
    21:00 -1°C° 0 mm 5 mps 737 mmHg 91%
    22:00 -1°C° 0 mm 5 mps 736 mmHg 94%
    23:00 -2°C° 0 mm 6 mps 736 mmHg 96%

    9 December, Monday

    Time Temperature Precipitation Wind Pressure Humidity
    00:00 -1°C° 0.2 mm 6 mps 735 mmHg 96%
    01:00 -1°C° 0.2 mm 6 mps 735 mmHg 95%
    02:00 +1°C° 0.2 mm 6 mps 734 mmHg 94%
    03:00 +1°C° 0.2 mm 6 mps 734 mmHg 93%
    04:00 +1°C° 0.2 mm 6 mps 734 mmHg 93%
    05:00 +1°C° 0.2 mm 6 mps 733 mmHg 92%
    06:00 +1°C° 0.1 mm 6 mps 733 mmHg 92%
    07:00 +1°C° 0.1 mm 6 mps 733 mmHg 92%
    08:00 +1°C° 0.1 mm 6 mps 733 mmHg 92%
    09:00 +1°C° 0.1 mm 6 mps 733 mmHg 92%
    10:00 +1°C° 0.1 mm 6 mps 733 mmHg 92%
    11:00 +1°C° 0.1 mm 6 mps 733 mmHg 92%
    12:00 +2°C° 0.1 mm 6 mps 733 mmHg 92%
    13:00 +2°C° 0.1 mm 6 mps 733 mmHg 92%
    14:00 +2°C° 0.1 mm 5 mps 732 mmHg 92%
    15:00 +2°C° 0.1 mm 5 mps 732 mmHg 93%
    16:00 +3°C° 0.1 mm 4 mps 733 mmHg 93%
    17:00 +3°C° 0.1 mm 4 mps 733 mmHg 94%
    18:00 +1°C° 0 mm 4 mps 733 mmHg 94%
    19:00 +1°C° 0 mm 4 mps 733 mmHg 94%
    20:00 +1°C° 0 mm 4 mps 733 mmHg 95%
    21:00 +1°C° 0 mm 4 mps 734 mmHg 95%
    22:00 +1°C° 0 mm 3 mps 734 mmHg 95%
    23:00 +1°C° 0 mm 3 mps 734 mmHg 95%

    10 December, Tuesday

    Time Temperature Precipitation Wind Pressure Humidity
    00:00 +1°C° 0 mm 3 mps 734 mmHg 96%
    01:00 +2°C° 0 mm 2 mps 734 mmHg 96%
    02:00 +2°C° 0 mm 2 mps 734 mmHg 97%
    03:00 +2°C° 0 mm 2 mps 734 mmHg 97%
    04:00 +1°C° 0 mm 2 mps 734 mmHg 96%
    05:00 +1°C° 0 mm 2 mps 734 mmHg 96%
    06:00 +1°C° 0 mm 2 mps 734 mmHg 96%
    07:00 +1°C° 0 mm 2 mps 734 mmHg 96%
    08:00 +1°C° 0 mm 2 mps 734 mmHg 96%
    09:00 +1°C° 0 mm 2 mps 734 mmHg 95%
    10:00 +2°C° 0 mm 2 mps 734 mmHg 95%
    11:00 +3°C° 0 mm 1 mps 734 mmHg 95%
    12:00 +3°C° 0.1 mm 1 mps 734 mmHg 96%
    13:00 +3°C° 0.1 mm 1 mps 734 mmHg 97%
    14:00 +3°C° 0.1 mm 1 mps 733 mmHg 98%
    15:00 +2°C° 0.1 mm 0 mps 733 mmHg 98%
    16:00 +2°C° 0.1 mm 0 mps 733 mmHg 98%
    17:00 +2°C° 0.1 mm 0 mps 733 mmHg 98%
    18:00 +3°C° 0.2 mm 1 mps 733 mmHg 98%
    19:00 +3°C° 0.2 mm 1 mps 733 mmHg 98%
    20:00 +3°C° 0.2 mm 1 mps 733 mmHg 98%
    21:00 +2°C° 0.3 mm 2 mps 733 mmHg 98%
    22:00 +1°C° 0.3 mm 3 mps 733 mmHg 97%
    23:00 0°C° 0.3 mm 4 mps 734 mmHg 97%

    11 December, Wednesday

    Time Temperature Precipitation Wind Pressure Humidity
    00:00 -1°C° 0.1 mm 5 mps 734 mmHg 93%
    01:00 -4°C° 0.1 mm 6 mps 735 mmHg 89%
    02:00 -6°C° 0.1 mm 7 mps 735 mmHg 84%
    03:00 -6°C° 0 mm 7 mps 736 mmHg 80%
    04:00 -5°C° 0 mm 6 mps 737 mmHg 75%
    05:00 -6°C° 0 mm 6 mps 738 mmHg 70%
    06:00 -6°C° 0 mm 6 mps 738 mmHg 73%
    07:00 -6°C° 0 mm 5 mps 739 mmHg 76%
    08:00 -6°C° 0 mm 5 mps 740 mmHg 78%
    09:00 -6°C° 0 mm 5 mps 740 mmHg 75%
    10:00 -6°C° 0 mm 5 mps 741 mmHg 72%
    11:00 -5°C° 0 mm 5 mps 741 mmHg 69%
    12:00 -5°C° 0 mm 5 mps 741 mmHg 69%
    13:00 -4°C° 0 mm 4 mps 742 mmHg 70%
    14:00 -4°C° 0 mm 4 mps 742 mmHg 70%
    15:00 -4°C° 0 mm 4 mps 742 mmHg 72%
    16:00 -4°C° 0 mm 3 mps 743 mmHg 74%
    17:00 -4°C° 0 mm 3 mps 743 mmHg 76%
    18:00 -3°C° 0 mm 2 mps 743 mmHg 79%
    19:00 -4°C° 0 mm 2 mps 743 mmHg 82%
    20:00 -4°C° 0 mm 2 mps 743 mmHg 85%
    21:00 -4°C° 0 mm 2 mps 743 mmHg 85%
    22:00 -4°C° 0 mm 2 mps 743 mmHg 85%
    23:00 -4°C° 0 mm 2 mps 743 mmHg 84%
    Show more